This demonstration page uses our WeatherBlox Daily Observations layout. Learn more.

Left ArrowRight Arrow

38.89511, -77.03637

Hourly Observations for November 26, 2018

Temp ( °F °C ) Dew Point ( °F °C ) Humidity (%) Winds ( mph kmh ) Pressure ( in mb ) Visibility ( mi km ) Precip ( " mm )
12:52 am 00:52 Cloudy 49 9.4 44 6.7 83 83 SE 6 9 29.86 1011 10 16 0.00 0.00
1:52 am 01:52 Cloudy 50 10 45 7.2 83 83 S 6 9 29.87 1012 10 16 0.00 0.00
2:52 am 02:52 Cloudy 50 10 44 6.7 80 80 SSE 7 11 29.83 1010 10 16 0.00 0.00
3:52 am 03:52 Cloudy 50 10 45 7.2 83 83 S 8 13 29.81 1010 10 16 0.00 0.00
4:52 am 04:52 Cloudy 47 8.3 44 6.7 90 90 SSE 6 9 29.78 1009 10 16 0.00 0.00
5:52 am 05:52 Cloudy 48 8.9 44 6.7 86 86 S 6 9 29.78 1008 10 16 0.00 0.00
6:52 am 06:52 Cloudy 49 9.4 44 6.7 83 83 S 9 15 29.76 1008 10 16 0.00 0.00
7:12 am 07:12 Cloudy with Light Rain 50 10 44 6.7 80 80 SSE 7 11 29.74 1007 10 16 0.00 0.03
7:52 am 07:52 Cloudy 50 10 44 6.7 80 80 SSE 10 17 29.75 1007 10 16 0.01 0.25
8:44 am 08:44 Cloudy 51 10.6 45 7.2 80 80 SSE 3 6 29.71 1006 10 16 0.01 0.25
8:52 am 08:52 Cloudy with Light Rain 51 10.6 45 7.2 80 80 S 6 9 29.70 1006 10 16 0.01 0.25
9:52 am 09:52 Cloudy with Light Rain 52 11.1 44 6.7 75 75 VRB 3 6 29.66 1004 10 16 0.00 0.03
10:08 am 10:08 Cloudy with Light Rain 51 10.6 45 7.2 80 80 WSW 7 11 29.68 1005 2 3 0.01 0.25
10:23 am 10:23 Cloudy with Rain 50 10 46 7.8 86 86 S 5 7 29.68 1005 2 3 0.07 1.78
10:52 am 10:52 Cloudy with Rain 50 10 47 8.3 89 89 Calm 29.63 1004 2 3 0.20 5.08
11:00 am 11:00 Cloudy with Light Rain 50 10 47 8.3 89 89 Calm 29.65 1004 4 6 0.02 0.51
11:02 am 11:02 Cloudy with Light Rain 50 10 47 8.3 89 89 Calm 29.65 1004 3 4 0.02 0.51
11:06 am 11:06 Cloudy with Heavy Rain 49 9.4 46 7.8 90 90 Calm 29.62 1003 2 2 0.05 1.27
11:34 am 11:34 Cloudy with Rain 50 10 48 8.9 93 93 Calm 29.62 1003 1 2 0.13 3.30
11:49 am 11:49 Cloudy with Rain 50 10 48 9 94 94 Calm 29.59 1002 2 3 0.20 5.08
11:52 am 11:52 Cloudy with Light Rain 50 10 47 8.3 89 89 Calm 29.58 1002 2 3 0.20 5.08
12:08 pm 12:08 Cloudy with Light Rain 50 10 48 8.9 93 93 Calm 29.56 1001 2 3 0.00 0.03
12:14 pm 12:14 Cloudy with Light Rain 50 10 48 8.9 93 93 Calm 29.56 1001 2 3 0.01 0.25
12:39 pm 12:39 Cloudy with Mist and Fog 49 9.4 47 8.3 93 93 Calm 29.53 1000 2 3 0.02 0.51
12:52 pm 12:52 Cloudy with Mist and Fog 50 10 48 8.9 93 93 Calm 29.52 1000 3 5 0.02 0.51
1:00 pm 13:00 Cloudy with Light Rain 50 10 48 8.9 93 93 Calm 29.50 999 2 3 0.00 0.03
1:07 pm 13:07 Cloudy with Mist and Fog 50 10 48 8.9 93 93 Calm 29.50 999 3 5 0.00 0.03
1:22 pm 13:22 Cloudy with Mist and Fog 51 10.6 49 9.4 92 92 SSW 3 6 29.50 999 6 10 0.00 0.03
1:52 pm 13:52 Cloudy 52 11.1 49 9.4 89 89 Calm 29.50 999 8 13 0.00 0.03
2:19 pm 14:19 Cloudy 52 11.1 49 9.4 89 89 S 6 9 29.50 999 8 13 0.00 0.00
2:52 pm 14:52 Cloudy 52 11.1 48 8.9 86 86 S 7 11 29.48 998 10 16 0.00 0.00
3:24 pm 15:24 Cloudy 51 10.6 47 8.3 86 86 S 7 11 29.50 999 10 16 0.00 0.00
3:52 pm 15:52 Cloudy 50 10 47 8.3 89 89 S 5 7 29.48 998 10 16 0.00 0.00
4:05 pm 16:05 Cloudy 52 11.1 48 8.9 86 86 SSW 7 11 29.50 999 10 16 0.00 0.00
4:35 pm 16:35 Cloudy 52 11.1 48 8.9 86 86 SW 6 9 29.50 999 10 16 0.00 0.00
4:42 pm 16:42 Cloudy with Light Rain 52 11.1 48 8.9 86 86 W 7 11 29.53 1000 5 8 0.00 0.03
4:52 pm 16:52 Cloudy with Light Rain 51 10.6 45 7.2 80 80 WNW 14 22 29.52 1000 6 10 0.01 0.25
4:59 pm 16:59 Cloudy 52 11.1 44 6.7 75 75 WNW 10 17 29.53 1000 10 16 0.00 0.03
5:52 pm 17:52 Cloudy 51 10.6 41 5 69 69 NW 12 19 29.53 1000 10 16 0.00 0.03
6:52 pm 18:52 Cloudy 50 10 36 2.2 59 59 WNW 16 26 29.55 1001 10 16 0.00 0.00
7:52 pm 19:52 Partly Cloudy 47 8.3 32 0 56 56 NW 14 22 29.59 1002 10 16 0.00 0.00
8:52 pm 20:52 Mostly Clear 45 7.2 30 -1.1 56 56 NW 13 20 29.60 1003 10 16 0.00 0.00
9:52 pm 21:52 Mostly Clear 44 6.7 30 -1.1 58 58 WNW 6 9 29.60 1002 10 16 0.00 0.00
10:52 pm 22:52 Mostly Clear 43 6.1 29 -1.7 58 58 W 7 11 29.60 1002 10 16 0.00 0.00
11:52 pm 23:52 Mostly Clear 43 6.1 29 -1.7 58 58 WSW 7 11 29.60 1002 10 16 0.00 0.00

Powered by AerisWeather